Weather

DAILY 7 DAY TOTAL
onrain

Note: Some stations are located near irrigated fields and may also report irrigation

Alliston Mount Forest Blyth Guelph Grand Bend Strathroy Woodstock Belmont Simcoe Leamington Chatham West Lorne






Grand Bend - Historical Weather Data
Date Max Temp (°C) Min Temp (°C) Avg Temp (°C) Rain (mm) 7Day Rain(mm) Total Rain(mm) Avg RH (%)
7/20/2018 29.9 12.3 21.1 1.4 1.4 60.4 80.3
7/19/2018 29.9 8.7 19.8 0.0 0.0 59.0 66.8
7/18/2018 23.8 10.8 18.1 0.0 0.0 59.0 73.2
7/17/2018 23.9 14.7 20.6 0.0 0.0 59.0 73.7
7/16/2018 32.4 19.2 24.5 0.0 0.0 59.0 82.0
7/15/2018 31.9 18.9 25.5 0.0 0.0 59.0 75.1
7/14/2018 28.8 18.4 24.0 0.0 0.0 59.0 74.2
7/13/2018 33.7 13.5 24.2 0.0 0.0 59.0 57.7
7/12/2018 30.7 10.2 20.9 0.0 0.0 59.0 64.3
7/11/2018 25.2 11.1 18.9 0.0 4.8 59.0 74.6
7/10/2018 23.9 14.6 20.9 0.0 4.8 59.0 68.9
7/9/2018 33.0 10.8 23.3 0.0 4.8 59.0 60.8
7/8/2018 31.5 8.5 20.7 0.0 4.8 59.0 63.8
7/7/2018 26.1 6.5 17.3 0.0 4.8 59.0 68.0
7/6/2018 20.6 10.4 17.5 0.0 4.8 59.0 69.7
7/5/2018 34.1 20.5 26.2 4.8 4.8 59.0 81.1
7/4/2018 34.5 16.2 25.4 0.0 0.0 54.2 66.5
7/3/2018 33.9 11.9 23.9 0.0 10.8 54.2 66.8
7/2/2018 29.8 16.1 25.3 0.0 10.8 54.2 72.2
7/1/2018 34.5 22.1 28.7 0.0 10.8 54.2 66.6
6/30/2018 35.9 22.7 29.0 0.0 21.8 54.2 70.1
6/29/2018 34.2 15.0 25.6 0.0 22.4 54.2 71.2
6/28/2018 29.9 15.1 21.2 0.0 31.0 54.2 82.3
6/27/2018 25.7 15.1 20.4 10.8 31.0 54.2 91.7
6/26/2018 27.6 6.8 18.3 0.0 22.0 43.4 69.9
6/25/2018 22.9 10.2 16.1 0.0 22.0 43.4 76.0
6/24/2018 20.1 13.4 16.9 11.0 40.2 43.4 95.3
6/23/2018 26.0 16.8 19.6 0.6 29.2 32.4 90.1
6/22/2018 25.1 11.3 17.2 8.6 31.8 31.8 70.5
6/21/2018 24.1 9.0 17.6 0.0 23.2 23.2 77.3
6/20/2018 20.7 12.2 16.7 1.8 23.2 23.2 83.1
6/19/2018 24.1 15.0 19.0 0.0 21.4 21.4 82.8
6/18/2018 31.9 17.6 25.3 18.2 21.4 21.4 79.5
6/17/2018 35.9 14.6 26.2 0.0 3.2 3.2 69.7
6/16/2018 28.9 14.9 20.4 3.2 3.2 3.2 73.8
6/15/2018 23.2 6.9 16.4 0.0 0.0 0.0 70.9
6/14/2018 22.1 0.0 17.3 0.0 0.0 0.0 56.3